Vorticity
5 0 3 10 12 9 9 6 2 2 2 5 -1 16 11 1 -2 7 6 9 5 6 7 7 10 14 15 16 16 14 14 16 15 12 8 5 15 12 9 9 10 9 8 8
5 2 3 4 4 7 4 12 11 10 11 11 4 5 5 13 8 6 3 6 6 7 4 5 5 7 10 11 7 6 8 9 10 11 13 9 10 10 11 9 7 7 6 4
3 6 8 4 11 8 10 10 6 11 11 15 9 7 10 11 16 16 4 11 8 6 7 11 11 9 11 10 8 6 6 7 9 8 9 11 10 7 6 6 6 4 4 5
3 6 1 7 5 12 11 11 10 14 10 6 7 10 11 15 14 14 12 10 11 10 11 11 11 12 13 11 11 10 10 8 6 9 8 7 6 6 6 5 4 6 4 5
5 7 5 8 -2 8 7 7 9 10 16 8 10 14 7 8 7 8 8 9 8 11 12 12 13 14 13 11 10 8 7 8 10 8 6 6 5 6 5 5 6 5 6 10
10 10 9 4 9 12 5 8 15 7 5 6 5 6 5 7 5 5 6 9 8 9 12 13 13 11 9 8 8 8 11 8 8 6 6 6 6 5 6 6 4 5 9 10
9 13 9 6 5 2 4 25 2 7 -1 9 7 5 8 6 4 6 5 8 10 9 11 12 11 10 10 10 9 8 8 6 6 5 5 5 4 5 5 4 6 9 13 11
6 7 10 4 6 11 7 8 8 10 10 2 4 3 4 7 8 7 6 7 11 10 10 9 8 11 10 6 6 6 6 5 5 5 5 4 4 5 5 5 9 11 10 7
6 3 3 3 5 6 -1 3 8 7 8 9 9 8 7 10 4 7 7 9 12 12 7 7 12 10 4 5 5 5 5 5 5 5 3 3 5 4 5 9 12 10 7 12
6 7 7 5 6 2 10 3 4 9 8 9 10 9 9 8 8 7 11 12 12 10 10 13 11 5 7 6 6 5 5 5 4 2 3 5 6 9 11 13 9 8 12 11
5 3 3 8 4 -9 6 2 3 7 8 9 7 8 3 7 5 15 13 10 8 13 12 9 7 7 5 5 5 6 5 3 3 4 4 8 9 10 11 6 8 11 10 6
10 3 3 -2 3 1 2 5 5 10 7 5 5 7 -2 6 -2 17 18 5 11 9 7 5 6 6 6 6 6 4 3 4 4 6 10 6 10 5 6 6 12 9 8 7
-2 2 6 -2 0 3 2 -1 1 17 8 5 9 10 3 8 13 16 14 8 7 6 5 6 5 6 5 3 2 4 1 5 11 7 8 9 8 5 6 9 8 10 9 6
19 17 23 18 20 15 3 4 7 3 -1 -2 4 13 5 2 2 8 9 8 7 6 6 5 6 4 2 2 -1 6 11 9 2 11 12 6 5 8 12 10 10 9 4 3
14 17 13 8 8 10 10 10 12 15 7 6 2 4 3 4 4 12 9 17 12 3 5 6 5 3 10 12 5 6 22 -4 10 11 5 5 9 9 8 7 6 6 6 4
13 8 8 13 10 7 6 10 9 6 9 7 5 3 2 5 8 12 7 9 14 6 3 5 14 -11 5 12 20 22 -17 13 9 4 7 9 7 7 7 7 6 4 4 7
11 12 11 8 9 14 16 8 3 5 14 14 9 5 9 14 6 8 5 8 6 8 3 8 4 -0 9 23 31 -12 14 5 5 9 7 6 7 7 6 4 4 5 9 11
5 8 11 9 5 3 6 10 14 14 14 15 12 10 15 8 -0 9 12 6 -1 1 3 23 13 29 36 -1 7 5 3 9 9 7 5 8 7 4 3 6 6 9 11 12
11 9 10 17 19 15 10 9 5 8 5 11 13 11 7 8 11 -7 -3 34 12 14 10 34 7 1 12 7 3 6 7 7 7 9 9 4 4 4 6 8 8 12 14 20
16 14 14 13 9 11 11 15 14 9 12 2 15 18 16 8 27 12 15 12 11 15 -4 -5 9 5 5 6 4 7 9 11 9 5 5 2 4 6 8 9 13 16 17 11
-1 7 10 10 6 4 8 -0 17 22 34 32 20 20 14 -2 12 25 16 19 0 -7 3 5 5 5 4 4 9 12 10 6 3 3 3 5 7 10 12 14 16 12 9 8
14 13 11 12 13 18 22 25 0 4 2 2 5 7 7 6 11 10 3 2 4 10 7 6 4 4 8 11 8 4 3 3 4 6 7 10 13 13 12 10 8 9 8 12
6 6 9 9 11 14 14 12 12 12 10 6 12 9 6 3 4 8 6 4 5 6 2 -1 6 7 5 4 4 5 7 7 7 10 12 12 10 9 10 10 11 12 14 15
12 12 13 13 14 13 13 14 12 8 9 10 7 4 4 6 5 2 4 7 2 -2 5 7 6 6 7 7 6 5 6 9 12 13 12 11 11 11 11 11 12 13 15 16
16 11 6 6 5 5 5 6 3 3 2 3 5 7 5 4 5 7 5 -0 4 8 6 6 6 4 4 7 10 11 13 12 11 12 12 12 11 12 13 15 17 18 20 22
9 13 6 -0 -1 3 5 6 9 8 6 6 5 5 6 12 10 0 3 5 4 5 5 5 5 8 11 12 13 13 15 15 15 16 15 14 15 17 21 23 24 25 25 24
1 2 3 4 5 4 4 4 5 6 7 8 8 10 11 5 2 4 4 3 6 7 9 12 14 16 16 18 19 19 18 16 13 11 12 17 22 24 25 24 25 24 22 22
Height
5688 5694 5697 5699 5698 5699 5701 5703 5704 5708 5710 5714 5711 5710 5712 5709 5707 5708 5709 5708 5708 5708 5707 5707 5706 5706 5705 5704 5703 5703 5702 5701 5699 5696 5694 5692 5689 5687 5684 5680 5677 5672 5668 5664
5680 5683 5689 5691 5693 5695 5698 5698 5698 5701 5702 5707 5704 5703 5702 5702 5701 5701 5702 5702 5702 5701 5699 5699 5698 5698 5697 5695 5694 5693 5692 5691 5690 5687 5685 5682 5680 5677 5674 5670 5665 5661 5656 5650
5672 5678 5680 5680 5686 5687 5690 5691 5693 5693 5696 5698 5699 5697 5694 5694 5694 5694 5696 5695 5695 5694 5692 5691 5689 5688 5687 5686 5685 5684 5683 5681 5680 5678 5676 5673 5670 5666 5663 5659 5654 5649 5643 5637
5667 5669 5667 5681 5679 5682 5683 5685 5686 5686 5688 5690 5690 5687 5687 5688 5687 5688 5688 5688 5687 5686 5684 5682 5680 5679 5678 5677 5675 5674 5673 5671 5669 5667 5665 5662 5659 5656 5652 5647 5642 5636 5630 5624
5657 5661 5667 5671 5675 5678 5677 5679 5679 5680 5682 5684 5681 5681 5682 5682 5681 5680 5680 5680 5678 5677 5675 5673 5671 5669 5668 5667 5666 5666 5664 5662 5660 5658 5655 5652 5649 5645 5640 5636 5630 5623 5616 5609
5650 5652 5653 5668 5669 5672 5671 5671 5673 5673 5673 5673 5672 5674 5674 5676 5674 5673 5672 5671 5669 5668 5666 5664 5662 5661 5660 5659 5658 5656 5655 5653 5651 5648 5646 5642 5638 5634 5628 5622 5616 5608 5601 5594
5642 5645 5651 5659 5662 5665 5664 5674 5666 5666 5665 5667 5666 5667 5667 5667 5667 5666 5664 5662 5660 5658 5656 5655 5654 5653 5652 5651 5649 5648 5645 5643 5640 5638 5634 5630 5625 5620 5615 5609 5602 5595 5587 5579
5637 5637 5642 5651 5655 5658 5664 5660 5660 5660 5659 5659 5659 5659 5659 5658 5658 5657 5655 5653 5651 5649 5648 5646 5645 5644 5643 5642 5640 5638 5635 5632 5629 5626 5622 5618 5613 5608 5601 5594 5587 5580 5573 5564
5629 5633 5639 5643 5646 5649 5651 5652 5652 5652 5652 5652 5652 5652 5652 5650 5649 5648 5646 5644 5642 5641 5639 5637 5635 5634 5633 5631 5629 5627 5624 5621 5617 5613 5609 5604 5598 5592 5586 5578 5571 5564 5556 5548
5620 5627 5630 5634 5639 5642 5643 5644 5642 5643 5643 5644 5644 5644 5643 5641 5639 5638 5636 5634 5632 5630 5629 5627 5626 5624 5623 5621 5618 5615 5612 5608 5604 5600 5594 5589 5583 5576 5569 5561 5555 5547 5540 5532
5610 5616 5622 5624 5631 5633 5632 5632 5633 5635 5635 5635 5634 5633 5632 5632 5630 5627 5625 5624 5621 5620 5619 5617 5616 5614 5611 5609 5606 5602 5598 5594 5590 5585 5580 5573 5566 5560 5553 5546 5539 5531 5523 5515
5605 5611 5612 5615 5616 5617 5621 5623 5624 5623 5624 5624 5624 5623 5622 5621 5619 5617 5616 5614 5612 5610 5608 5606 5604 5602 5599 5596 5593 5589 5585 5580 5575 5569 5563 5556 5550 5544 5535 5530 5522 5513 5505 5497
5597 5599 5600 5604 5609 5609 5610 5612 5614 5614 5614 5614 5614 5613 5612 5610 5608 5606 5605 5603 5601 5599 5597 5595 5592 5589 5586 5583 5579 5575 5570 5565 5559 5553 5547 5539 5532 5526 5520 5513 5502 5496 5488 5479
5587 5590 5594 5595 5595 5598 5601 5602 5603 5603 5603 5602 5602 5601 5600 5598 5597 5595 5593 5592 5590 5587 5584 5582 5579 5576 5572 5568 5564 5560 5554 5548 5543 5536 5529 5522 5516 5508 5499 5492 5484 5478 5473 5463
5580 5582 5584 5585 5587 5588 5590 5591 5591 5591 5591 5590 5589 5588 5588 5586 5584 5583 5582 5580 5576 5573 5571 5569 5565 5560 5556 5552 5547 5542 5537 5532 5525 5518 5511 5504 5498 5490 5482 5473 5465 5457 5449 5440
5570 5571 5573 5574 5575 5576 5577 5577 5578 5578 5578 5577 5576 5576 5575 5573 5573 5572 5569 5566 5564 5560 5557 5552 5548 5544 5540 5535 5530 5525 5520 5514 5508 5501 5494 5486 5479 5471 5463 5454 5446 5438 5429 5420
5561 5562 5562 5564 5564 5564 5565 5566 5566 5566 5565 5564 5565 5564 5562 5562 5560 5557 5555 5551 5547 5544 5541 5537 5533 5527 5522 5519 5516 5511 5504 5497 5491 5484 5476 5468 5460 5452 5443 5434 5426 5416 5406 5397
5549 5550 5551 5552 5552 5552 5552 5553 5553 5553 5553 5553 5553 5551 5549 5547 5546 5543 5539 5534 5530 5528 5525 5520 5517 5513 5509 5505 5499 5493 5487 5480 5472 5465 5457 5448 5440 5432 5423 5413 5404 5394 5384 5373
5538 5538 5539 5540 5541 5541 5542 5542 5541 5540 5540 5540 5539 5537 5535 5532 5530 5527 5523 5520 5516 5514 5511 5507 5502 5498 5493 5487 5482 5475 5467 5460 5453 5445 5436 5428 5420 5410 5401 5392 5382 5371 5362 5352
5527 5528 5529 5530 5530 5530 5530 5529 5529 5528 5527 5526 5525 5522 5519 5518 5516 5513 5509 5506 5502 5499 5495 5492 5486 5481 5476 5470 5463 5456 5448 5440 5432 5424 5416 5407 5398 5389 5379 5369 5360 5350 5341 5332
5519 5519 5520 5520 5520 5519 5519 5518 5517 5515 5514 5512 5510 5508 5506 5503 5501 5498 5495 5492 5488 5484 5479 5474 5469 5464 5457 5451 5444 5436 5428 5420 5412 5403 5395 5386 5376 5366 5356 5347 5338 5330 5321 5312
5510 5510 5510 5509 5508 5508 5507 5506 5504 5503 5502 5500 5498 5496 5494 5490 5487 5483 5480 5476 5472 5468 5463 5457 5451 5444 5437 5430 5423 5415 5407 5399 5390 5381 5371 5362 5352 5343 5334 5325 5317 5309 5300 5291
5501 5500 5499 5498 5497 5497 5495 5494 5492 5491 5489 5488 5485 5483 5480 5477 5473 5469 5465 5461 5456 5451 5445 5438 5430 5423 5416 5409 5401 5393 5384 5375 5366 5356 5346 5337 5328 5320 5311 5303 5295 5286 5278 5269
5490 5489 5488 5487 5487 5485 5483 5481 5480 5479 5477 5475 5472 5469 5466 5462 5458 5453 5448 5443 5437 5431 5424 5417 5410 5402 5394 5386 5378 5368 5359 5349 5340 5330 5321 5312 5303 5295 5287 5279 5272 5263 5256 5248
5480 5479 5477 5477 5475 5473 5471 5470 5468 5466 5463 5460 5457 5453 5449 5445 5440 5435 5429 5423 5417 5410 5405 5395 5389 5380 5371 5361 5351 5342 5332 5322 5313 5303 5294 5286 5278 5270 5263 5255 5248 5241 5234 5227
5469 5467 5466 5464 5462 5460 5458 5456 5454 5451 5447 5444 5440 5436 5431 5427 5421 5415 5410 5403 5396 5389 5381 5374 5366 5356 5345 5335 5325 5315 5305 5295 5286 5277 5269 5260 5252 5245 5238 5232 5225 5219 5213 5207
5457 5455 5453 5451 5449 5446 5444 5441 5438 5434 5431 5427 5422 5418 5413 5408 5402 5396 5389 5383 5375 5368 5358 5349 5339 5329 5319 5307 5297 5287 5278 5268 5259 5251 5242 5234 5227 5221 5216 5210 5205 5200 5195 5191